Aérodrome :
LOGIN :

S'inscrire | Disclaimer

   EN    FR    IT 

 










Légende :    VFR   VFR Marginal   IFR   IFR Intensif   IFR Très Intensif
Visi : 
Plafond : 
>= 8 km
>= 3000ft
5 à 8 km
1000 à 3000 ft
1500m à 5 km
500 à 1000 ft
800 à 1500m
200 à 500 ft
< 800m
< 200 ft
Symboles :   Orages  Brouillard  Fortes neiges  Fortes précipitations  Vent > 20 kt
SIGMETs :   Divers  Orages  Givrage  Turbulence  Onde Orograph.  Cendres Volcan.







- Altitude de l'aérodrome : 33 ft
- Code IATA : MHZ


EGUN - RAF Mildenhall

DERNIER METAR :
  • 222359Z 00000KT 9999 CLR 18/17 A3013 RMK SLPNO WND DATA ESTMD ALSTG ESTMD 10269 20187 402920159 RVRNO .

METARs EXPIRÉS :
  • 222256Z 00000KT 9999 CLR 19/19 A3014 RMK AO2A SLP209 T01940194 $
  • 222156Z 00000KT 9999 CLR 20/19 A3014 RMK AO2A SLPNO T01970190 $

TAF TAF EGUN
Valide du 22 à 20h jusqu'au 24 à 02h UTC


222010Z 2220/2402 27009KT 9999 SKC QNH3011INS
BECMG 2301/2302 VRB06KT 8000 BR SKC QNH3014INS
BECMG 2305/2306 15009KT 9999 NSW SKC QNH3007INS
BECMG 2313/2314 15012G20KT 9999 SKC QNH2995INS TX30/2313Z TN18/2303Z
Pas de NOTAMs connus pour ce terrain.



MET'MAP, la Météo Aéronautique d'un coup d'oeil ! - Copyright ORBIFLY Décembre 2007 - Disclaimer

ORBIFLY MET'MAP TEAM :

Programmation & Développement : Alexandra Zaïnal
Conception & Développement : Baudouin d'Aumeries
Co-Programmation & Développement : Marc-Olivier Méhu
Soutien technique & logistique : Manuel Goepfert

Contact : metmap@orbifly.com




SOURCES & CREDITS :

   NOAA